Wind_Speed
5 4 5 6 6 6 5 4 4 3 3 4 4 4 4 5 6 7 7 8 9 9 10 10 10 9 8 8 7 7 7 7 7 8 8 7 7 7 7 7 7 7 7
5 5 6 7 7 7 6 5 5 5 5 5 5 5 6 6 6 6 7 7 8 8 9 9 9 8 8 7 7 6 6 7 7 7 8 7 7 8 7 7 8 8 8
6 6 7 8 9 9 8 8 7 7 7 7 7 7 7 6 6 7 7 7 7 8 8 8 7 7 6 6 6 6 6 6 7 7 7 7 8 8 8 8 8 8 8
7 7 8 9 9 10 10 9 9 8 8 9 8 8 8 8 7 7 7 7 7 7 7 6 6 5 5 5 5 5 5 6 7 7 7 7 7 7 8 8 8 8 8
9 9 9 10 11 11 11 10 10 9 10 10 10 10 9 9 8 7 7 7 7 6 6 5 5 4 4 4 4 5 5 6 7 7 8 7 7 7 8 8 8 8 8
11 11 11 11 11 12 12 12 11 11 11 11 11 11 10 9 9 8 7 7 6 6 5 4 4 3 3 4 4 5 5 6 7 7 8 8 7 8 8 8 8 8 8
13 13 12 12 13 13 13 13 12 12 12 12 12 11 11 10 9 8 8 7 6 5 4 4 3 3 3 3 4 5 6 6 7 7 7 8 8 8 8 9 9 8 8
14 13 13 13 13 13 13 13 13 13 13 13 13 12 11 10 9 9 8 7 6 5 4 4 4 3 3 4 5 5 6 6 7 7 8 8 8 8 9 9 9 9 9
13 13 13 14 13 13 13 13 14 14 14 14 13 13 12 11 10 9 8 7 7 6 5 5 4 4 4 4 5 5 6 7 7 8 8 9 9 8 9 9 9 10 10
13 14 14 13 13 12 12 13 13 13 14 14 14 13 12 11 11 10 9 8 8 7 6 6 5 5 5 5 5 6 7 7 8 8 8 9 10 9 9 9 10 10 11
14 15 13 12 12 12 12 12 12 13 13 14 14 14 13 13 12 11 10 9 9 8 8 7 7 6 6 6 6 6 7 8 8 9 10 10 10 11 11 11 11 11 12
14 14 13 12 11 11 12 12 12 13 14 14 14 14 14 14 13 12 12 11 10 10 9 9 8 7 7 7 8 8 8 9 10 11 12 12 12 12 13 13 13 14 13
14 15 14 12 12 11 12 12 13 13 14 15 15 15 15 15 14 13 13 13 12 11 11 10 9 9 8 9 9 10 11 12 12 13 14 14 14 14 15 15 16 16 15
14 15 14 13 12 12 12 12 13 13 14 15 15 15 15 15 15 14 14 14 13 13 13 12 11 11 10 11 11 12 13 14 15 15 16 16 16 17 17 18 18 18 18
15 16 15 14 13 13 12 12 13 14 15 15 15 15 16 16 16 16 16 15 15 15 14 14 13 12 12 13 14 14 15 16 17 18 19 19 19 20 20 20 20 20 21
16 17 16 15 13 13 12 13 14 14 15 15 16 16 16 17 17 17 17 17 17 16 16 15 15 14 14 15 16 17 18 19 19 20 21 21 21 22 22 22 23 23 23
17 17 17 16 14 14 14 14 14 14 15 16 17 17 17 18 18 19 19 19 18 18 18 17 17 17 17 18 19 19 20 20 21 22 22 22 23 23 23 23 24 24 24
18 18 19 18 17 16 16 15 15 15 16 17 18 18 19 20 20 20 21 21 21 20 20 19 19 19 20 20 21 21 21 22 23 23 24 24 24 24 24 24 24 25 26
21 21 21 21 20 19 19 19 19 18 18 19 20 20 21 22 22 22 22 22 22 21 21 21 21 21 22 22 22 22 23 23 24 25 25 24 25 25 25 25 25 26 27
23 23 23 24 23 22 21 21 22 21 21 21 22 22 23 23 23 24 24 23 23 22 22 23 23 23 24 25 25 25 25 26 26 26 25 26 27 26 27 27 28 29 30
26 25 25 25 24 25 24 25 25 24 24 24 25 25 25 25 25 25 25 25 25 25 24 25 25 25 26 26 26 26 26 27 27 28 28 28 28 28 29 30 30 31 31
29 29 28 26 25 26 26 26 28 27 27 26 25 26 26 27 27 27 27 27 27 26 26 26 27 27 27 27 27 27 27 27 29 30 30 30 30 31 31 32 32 33 34
31 30 30 28 26 26 27 29 30 28 27 27 26 27 27 29 30 29 29 29 28 28 27 26 27 27 27 27 28 28 28 29 29 30 31 32 32 32 33 34 34 36 37
33 31 31 30 29 29 28 28 29 29 27 26 27 28 29 30 31 31 29 29 28 27 26 24 24 25 26 26 27 28 29 30 30 31 31 33 34 35 36 37 38 39 40
34 32 31 30 31 31 29 27 26 26 26 26 27 27 27 29 29 30 29 27 25 24 24 24 24 24 26 27 28 29 31 32 33 34 35 35 37 38 38 40 41 42 44
34 33 32 31 31 31 29 27 25 25 23 24 25 25 25 26 27 26 26 26 24 23 24 24 25 26 27 28 30 31 33 34 35 37 38 39 40 41 42 43 45 46 47
Wind_Direction
191 203 226 242 245 246 247 244 243 245 246 256 273 287 297 305 312 315 316 317 317 317 316 315 316 316 316 316 316 315 314 314 312 309 309 309 306 303 300 296 291 288 284
189 205 226 238 246 246 248 249 251 254 257 261 269 277 283 292 300 304 306 309 312 314 314 313 314 315 317 318 318 318 318 316 312 310 310 311 309 304 299 295 290 287 283
194 211 224 238 244 243 246 249 251 255 260 264 269 275 280 286 292 297 299 303 307 310 311 312 312 314 317 318 319 318 316 312 309 309 309 308 306 301 294 291 289 286 282
200 212 224 234 240 243 246 249 251 254 259 264 270 275 279 281 285 289 292 296 301 305 307 308 309 313 315 316 317 316 313 309 308 309 309 308 304 298 291 287 288 285 282
206 215 226 235 240 245 246 249 249 252 256 262 267 273 276 278 280 283 286 291 296 299 301 302 305 308 309 309 310 313 311 310 309 309 308 307 302 294 288 286 287 286 284
207 213 224 232 240 241 243 246 247 249 252 257 262 268 271 273 274 278 282 288 291 293 293 296 299 300 304 307 308 310 312 310 309 307 307 305 302 299 294 290 289 288 286
204 210 219 228 235 236 239 241 242 244 248 253 257 262 265 268 270 273 277 282 284 283 281 283 283 286 296 301 303 309 313 313 309 307 308 309 305 303 299 294 291 289 286
206 207 217 224 228 232 234 236 238 241 246 250 252 256 259 263 265 266 269 273 272 268 267 267 267 270 283 290 294 300 307 312 311 310 308 307 307 305 303 299 294 290 288
210 211 218 221 225 230 233 235 236 238 243 247 249 250 253 256 257 258 259 259 259 256 254 258 261 267 275 283 293 299 305 310 312 314 311 309 308 307 306 302 297 293 291
213 214 219 219 225 228 230 233 234 237 240 243 246 248 249 249 249 249 249 249 249 247 248 251 255 263 270 275 285 295 300 304 307 311 311 310 309 307 307 303 296 294 290
212 212 217 221 222 224 227 231 233 235 238 240 243 244 244 243 241 240 241 240 240 241 245 247 251 257 262 268 278 288 295 301 303 303 303 305 305 303 303 299 295 293 291
215 211 212 216 218 221 224 228 231 235 237 239 240 240 240 239 236 234 234 233 233 238 243 244 247 253 259 266 274 284 289 293 297 296 297 299 299 296 297 296 292 289 288
223 215 212 213 217 221 223 226 230 233 236 237 238 239 237 234 233 232 232 231 231 235 239 244 249 254 261 268 274 279 283 287 291 292 292 293 293 290 291 291 289 287 285
234 221 213 216 219 222 226 230 232 234 234 236 238 237 235 233 231 231 230 231 231 234 238 243 250 256 263 270 273 277 281 285 287 289 289 288 287 287 288 287 285 282 281
234 220 218 222 224 224 226 230 233 235 235 236 237 237 235 232 231 230 230 231 233 236 240 245 253 261 269 274 277 281 282 283 286 287 287 286 284 284 284 281 282 280 278
233 225 223 222 222 224 227 230 232 234 235 235 235 236 235 234 234 233 232 233 236 240 243 249 255 262 268 275 279 281 283 284 285 286 285 285 285 284 281 279 278 277 276
231 230 229 227 228 229 230 231 233 235 237 236 236 236 236 236 237 238 238 239 241 245 248 253 257 263 270 275 280 283 284 284 286 286 285 285 286 284 280 278 278 277 276
234 235 234 233 230 232 233 233 234 237 238 238 238 238 238 239 241 243 243 244 246 250 252 254 258 264 270 277 281 283 283 283 286 286 285 284 284 283 279 277 276 276 276
236 238 240 239 235 233 233 234 237 239 239 239 240 241 241 242 244 246 248 248 249 251 253 255 258 264 269 274 279 280 281 282 283 284 283 282 282 281 279 277 275 275 274
238 242 247 247 243 239 238 238 240 241 241 239 240 241 242 242 244 246 248 249 251 254 257 259 263 268 270 274 277 279 280 282 281 281 280 279 280 280 279 278 277 275 274
243 247 251 250 247 244 242 243 241 242 242 242 243 243 242 242 243 245 247 250 254 257 260 262 266 269 271 274 276 279 281 282 282 281 281 279 278 278 279 278 277 277 276
245 249 252 254 253 249 247 245 241 243 244 243 245 246 245 244 243 245 249 252 254 257 260 264 267 268 270 272 276 279 281 282 282 282 281 279 278 279 279 279 279 278 277
245 249 254 257 255 252 250 248 244 244 244 245 247 249 248 246 246 247 250 254 256 258 261 265 269 270 273 274 275 279 280 281 282 283 281 279 279 280 281 280 279 279 278
242 247 253 256 255 255 254 250 247 247 246 246 249 249 249 248 248 249 251 255 256 258 262 267 270 274 275 276 277 279 282 282 284 284 283 282 282 283 283 282 282 281 281
241 244 248 252 257 259 256 254 253 247 247 248 250 250 251 250 249 250 253 256 257 260 265 269 272 275 278 279 281 282 283 283 284 285 285 285 285 285 285 284 284 282 281
241 244 245 248 253 257 257 260 257 257 257 256 256 254 253 253 253 253 256 258 262 264 269 273 275 277 280 282 283 284 284 285 286 286 285 285 285 285 285 284 283 283 282
Height
5885 5887 5888 5890 5891 5892 5892 5893 5894 5895 5896 5897 5897 5898 5898 5899 5899 5899 5899 5899 5899 5899 5899 5899 5898 5898 5898 5897 5897 5896 5896 5895 5895 5895 5895 5895 5895 5895 5895 5894 5894 5894 5894
5884 5885 5887 5888 5890 5890 5891 5892 5893 5894 5895 5895 5896 5897 5898 5898 5898 5898 5898 5898 5898 5898 5898 5898 5897 5897 5897 5896 5896 5895 5895 5895 5894 5894 5894 5894 5894 5894 5894 5894 5894 5894 5894
5882 5883 5885 5887 5888 5889 5890 5890 5891 5892 5893 5894 5895 5896 5896 5897 5897 5897 5897 5897 5897 5897 5897 5897 5896 5896 5896 5895 5895 5894 5894 5894 5893 5893 5893 5893 5893 5893 5893 5893 5893 5893 5893
5879 5881 5882 5884 5886 5887 5888 5888 5889 5890 5891 5892 5893 5894 5895 5895 5895 5896 5896 5896 5896 5896 5896 5896 5896 5895 5895 5895 5894 5894 5894 5893 5893 5892 5892 5892 5892 5892 5892 5892 5891 5891 5891
5877 5878 5880 5882 5883 5884 5885 5886 5887 5888 5889 5890 5891 5892 5893 5893 5893 5894 5894 5894 5894 5895 5895 5895 5895 5894 5894 5894 5894 5894 5893 5893 5892 5892 5891 5891 5891 5891 5890 5890 5890 5890 5890
5874 5875 5877 5879 5880 5882 5883 5884 5884 5885 5887 5888 5889 5890 5890 5891 5891 5892 5892 5892 5893 5893 5893 5893 5894 5894 5894 5894 5893 5893 5893 5892 5892 5891 5891 5890 5890 5890 5889 5889 5888 5888 5888
5871 5872 5874 5875 5877 5878 5880 5881 5882 5883 5884 5885 5886 5887 5888 5889 5890 5890 5890 5890 5891 5892 5892 5892 5893 5893 5893 5893 5893 5892 5892 5891 5891 5890 5890 5889 5889 5888 5888 5887 5887 5887 5887
5868 5869 5871 5872 5874 5875 5877 5878 5879 5880 5881 5883 5884 5885 5886 5887 5888 5888 5888 5889 5889 5890 5890 5891 5891 5892 5892 5892 5891 5891 5891 5890 5890 5889 5888 5888 5887 5887 5886 5886 5885 5885 5885
5865 5866 5868 5869 5871 5872 5874 5875 5876 5877 5879 5880 5881 5883 5884 5885 5886 5886 5887 5887 5888 5888 5889 5890 5890 5891 5891 5890 5890 5890 5889 5889 5888 5888 5887 5886 5886 5885 5884 5884 5884 5883 5883
5863 5864 5865 5867 5868 5869 5871 5872 5873 5874 5876 5877 5879 5880 5882 5883 5884 5884 5885 5885 5886 5887 5887 5888 5888 5889 5889 5889 5889 5888 5888 5888 5887 5886 5886 5885 5884 5884 5883 5882 5882 5882 5882
5860 5862 5863 5864 5865 5866 5868 5869 5870 5872 5873 5874 5876 5877 5879 5880 5881 5882 5883 5884 5884 5885 5886 5886 5887 5887 5887 5887 5887 5887 5886 5886 5886 5885 5884 5883 5883 5882 5881 5881 5880 5880 5880
5857 5859 5860 5861 5862 5863 5865 5866 5868 5869 5870 5872 5873 5875 5876 5878 5879 5880 5881 5882 5882 5883 5883 5884 5885 5885 5885 5886 5885 5885 5885 5884 5884 5883 5882 5882 5881 5880 5879 5879 5878 5878 5877
5854 5856 5857 5858 5859 5861 5862 5863 5865 5866 5867 5869 5870 5872 5873 5875 5876 5877 5878 5879 5880 5880 5881 5882 5882 5883 5883 5883 5883 5883 5882 5882 5881 5881 5880 5879 5879 5878 5877 5876 5876 5875 5875
5852 5853 5854 5855 5856 5857 5859 5860 5862 5863 5864 5866 5867 5869 5870 5872 5873 5875 5876 5877 5877 5878 5878 5879 5880 5880 5881 5881 5881 5880 5880 5879 5878 5878 5877 5876 5876 5875 5874 5873 5872 5872 5871
5849 5850 5851 5852 5853 5855 5856 5857 5859 5860 5862 5863 5864 5866 5868 5869 5870 5871 5872 5873 5874 5875 5875 5876 5877 5877 5878 5878 5878 5877 5877 5876 5875 5874 5874 5873 5872 5871 5870 5869 5868 5867 5867
5846 5846 5847 5849 5850 5851 5853 5854 5855 5857 5859 5860 5861 5863 5864 5866 5867 5868 5869 5870 5871 5872 5872 5873 5873 5873 5874 5873 5873 5873 5872 5871 5871 5870 5869 5868 5867 5866 5865 5864 5863 5863 5862
5842 5843 5844 5845 5847 5848 5850 5851 5852 5854 5856 5857 5858 5860 5861 5862 5863 5864 5866 5866 5867 5868 5869 5869 5869 5869 5869 5869 5869 5868 5867 5867 5866 5865 5864 5863 5862 5861 5860 5859 5858 5857 5857
5838 5840 5841 5842 5843 5844 5846 5847 5849 5851 5852 5854 5855 5856 5857 5858 5859 5860 5861 5862 5863 5863 5864 5864 5865 5865 5864 5864 5863 5863 5862 5861 5860 5860 5858 5857 5857 5855 5854 5854 5853 5852 5852
5833 5835 5837 5837 5838 5839 5841 5843 5845 5847 5848 5849 5850 5851 5852 5854 5855 5856 5857 5858 5858 5859 5859 5859 5860 5859 5859 5859 5858 5858 5857 5856 5855 5854 5853 5852 5851 5850 5849 5848 5847 5847 5846
5828 5830 5832 5832 5833 5835 5836 5838 5840 5841 5842 5844 5845 5846 5848 5849 5850 5851 5852 5852 5853 5854 5854 5854 5855 5854 5854 5853 5853 5852 5852 5851 5849 5848 5847 5846 5845 5844 5843 5842 5841 5840 5839
5823 5825 5826 5826 5827 5829 5831 5832 5834 5835 5837 5838 5840 5841 5842 5843 5845 5846 5847 5847 5848 5848 5849 5849 5849 5849 5848 5848 5847 5846 5845 5844 5843 5842 5841 5840 5839 5837 5836 5835 5834 5833 5832
5818 5820 5821 5821 5822 5824 5825 5826 5827 5829 5830 5832 5834 5835 5836 5837 5839 5840 5841 5841 5842 5843 5843 5843 5843 5843 5842 5841 5841 5840 5839 5838 5836 5835 5834 5833 5832 5831 5829 5828 5827 5825 5824
5813 5815 5816 5816 5817 5818 5819 5820 5821 5822 5823 5825 5828 5829 5829 5831 5832 5833 5834 5835 5836 5836 5837 5837 5837 5836 5836 5835 5834 5833 5832 5831 5830 5828 5827 5826 5824 5823 5822 5820 5819 5817 5815
5807 5809 5811 5811 5812 5812 5812 5813 5814 5815 5817 5819 5821 5822 5823 5824 5826 5827 5828 5829 5830 5830 5830 5830 5830 5830 5829 5828 5827 5826 5825 5824 5822 5821 5820 5818 5817 5815 5813 5812 5810 5808 5806
5800 5803 5805 5806 5807 5806 5806 5807 5808 5809 5811 5812 5814 5815 5817 5817 5819 5821 5822 5823 5823 5824 5824 5824 5824 5823 5823 5822 5821 5819 5818 5816 5814 5813 5811 5810 5808 5806 5804 5802 5800 5798 5795
5793 5796 5798 5800 5801 5800 5801 5803 5804 5804 5804 5806 5808 5809 5811 5812 5812 5814 5815 5816 5817 5817 5818 5818 5818 5817 5816 5815 5813 5812 5810 5809 5807 5805 5803 5801 5799 5797 5794 5792 5789 5786 5784